IRIDIUM 83 [-]

Last updated on Nov. 6, 2018, 12:08 a.m. UTC

1 25531U 98066E   18309.41791031  .19656061 -15213-5  23675-3 0  9990
2 25531  86.3696 136.3305 0050094  91.1680 269.5370 16.44088461 47195

Satellite is not in orbit.